Regional Weather Roundup
Issued by NWS

Home | Current Version | Previous Version | Graphics & Text | Print | Product List | Glossary On
Versions: 1 2 3 4 5 6 7 8 9 10 11 12 13 14 15 16 17 18 19 20 21 22 23 24 25 26 27 28 29 30 31 32 33 34 35 36 37 38 39 40 41 42 43 44 45 46 47 48 49 50
000
ASUS43 KOAX 241702
RWRNE

WEATHER ROUNDUP FOR NEBRASKA
NATIONAL WEATHER SERVICE OMAHA NE
1200 PM CDT FRI OCT 24 2014

NOTES: SATELLITE DATA IS BEING USED TO AUGMENT CLOUD COVER ABOVE
       12000 FEET.
       "FAIR" INDICATES FEW OR NO CLOUDS BELOW 12,000 FEET WITH NO
       SIGNIFICANT WEATHER AND/OR OBSTRUCTIONS TO VISIBILITY.

  * THESE STATIONS DO NOT REPORT WEATHER SUCH AS RAIN...SNOW OR FOG.

NEZ001>004-019>022-054>056-241800-
NEBRASKA PANHANDLE

CITY           SKY/WX    TMP DP  RH WIND       PRES   REMARKS
SCOTTSBLUFF    MOSUNNY   72  32  23 W14       30.09S
ALLIANCE       MOSUNNY   72  38  29 W16       30.07R
CHADRON        MOSUNNY   68  38  33 W13       30.04S
KIMBALL        CLOUDY    71  32  23 W18       30.13S
SIDNEY         CLOUDY    69  40  34 N8        30.12S
$$

NEZ057>060-069>072-079>082-241800-
SOUTHWEST NEBRASKA

CITY           SKY/WX    TMP DP  RH WIND       PRES   REMARKS
NORTH PLATTE   CLOUDY    64  43  46 W8        30.03S
IMPERIAL       PTSUNNY   72  38  29 NW8       30.07S
LEXINGTON      CLOUDY    65  48  53 W10       30.01S
MCCOOK         MOSUNNY   67  43  41 VRB5      30.05R
OGALLALA       CLOUDY    64  43  46 W6        30.07R
$$

NEZ005>010-023>029-035>040-094-241800-
NORTH CENTRAL NEBRASKA

CITY           SKY/WX    TMP DP  RH WIND       PRES   REMARKS
VALENTINE      PTSUNNY   64  37  36 W8        29.98R
AINSWORTH      CLOUDY    65  38  36 NW6       29.97S
BROKEN BOW     CLOUDY    70  45  40 NW8       29.98S
O`NEILL        CLOUDY    63  46  54 W5        29.96R
ORD            CLOUDY    58  52  80 NW5       29.96S
THEDFORD       PTSUNNY   75  37  25 NW9G17    30.00F
$$

NEZ041-046>049-061>064-073>077-083>087-241800-
SOUTH CENTRAL NEBRASKA

CITY           SKY/WX    TMP DP  RH WIND       PRES   REMARKS
GRAND ISLAND   CLOUDY    63  53  70 W7        29.97S
AURORA         CLOUDY    63  56  76 W8        29.97R
HASTINGS       CLOUDY    65  51  60 W9        29.98R
HEBRON         CLOUDY    65  59  81 SW12      29.98S
HOLDREGE       CLOUDY    65  50  59 CALM      30.00S
KEARNEY *      CLOUDY    64  52  63 W9        30.00S
YORK           CLOUDY    64  57  77 W8        29.96S
$$

NEZ011>018-030>034-042>045-241800-
NORTHEAST NEBRASKA

CITY           SKY/WX    TMP DP  RH WIND       PRES   REMARKS
NORFOLK        CLOUDY    63  53  70 W5        29.93S
ALBION         CLOUDY    62  51  67 CALM      29.95S
BLAIR          PTSUNNY   68  59  73 SW9       29.93F
COLUMBUS *     CLOUDY    64  54  68 W8        29.96S
FREMONT        PTSUNNY   69  57  66 W6        29.94S
TEKAMAH        PTSUNNY   68  57  68 W8        29.92F
WAYNE          PTSUNNY   66  50  57 NW5       29.93S
$$

NEZ050>053-065>068-078-088>093-241800-
SOUTHEAST NEBRASKA

CITY           SKY/WX    TMP DP  RH WIND       PRES   REMARKS
LINCOLN        CLOUDY    68  59  73 W9        29.96S
OMAHA EPPLEY   CLOUDY    68  59  73 SW8       29.93F
BEATRICE       CLOUDY    65  61  87 SW10      29.97S
FALLS CITY     CLOUDY    68  62  81 SW13      29.97F
NEBRASKA CITY  CLOUDY    66  63  91 S9        29.96F
PLATTSMOUTH    CLOUDY    67  60  80 SW8       29.96S
$$

NEZ044-045-051>053-067-241800-
OMAHA AREA

CITY           SKY/WX    TMP DP  RH WIND       PRES   REMARKS
OMAHA EPPLEY   CLOUDY    68  59  73 SW8       29.93F
BLAIR          PTSUNNY   68  59  73 SW9       29.93F
FREMONT        PTSUNNY   69  57  66 W6        29.94S
OFFUTT AFB     PTSUNNY   69  68  98 SW8       29.93F
PLATTSMOUTH    CLOUDY    67  60  80 SW8       29.96S
WAHOO          FAIR      68  56  65 SW5       29.94F
$$



USA.gov is the U.S. government's official web portal to all federal, state and local government web resources and services.